Weather History for PMDY - February, 2014

Change the Weather History Date:

Wednesday, February 19, 2014

  Actual Average Record
Temperature  
Mean Temperature 66 °F -  
Max Temperature 70 °F - - ()
Min Temperature 63 °F - - ()
Cooling Degree Days 2    
Growing Degree Days 16 (Base 50)    
Moisture  
Dew Point 60 °F    
Average Humidity 78    
Maximum Humidity 93    
Minimum Humidity 59    
Precipitation  
Precipitation 0.00 in - - ()
Sea Level Pressure  
Sea Level Pressure 30.90 in    
Wind  
Wind Speed 4 mph (South)    
Max Wind Speed 9 mph    
Max Gust Speed -    
Visibility 7 miles    
Events      
T = Trace of Precipitation, MM = Missing Value Source: NWS Daily Summary

Daily Weather History Graph

Daily Weather History Graph

Search for Another Location

Airport or City:

Trip Planner

Search our weather history database for the weather conditions in past years. The results will help you decide how hot, cold, wet, or windy it might be!

Date:

Astronomy

Feb. 19, 2014 Rise Set
Actual Time 6:23 PM GMT 5:43 AM GMT
Civil Twilight 5:59 PM GMT 6:07 AM GMT
Nautical Twilight 5:32 PM GMT 6:34 AM GMT
Astronomical Twilight 5:04 PM GMT 7:02 AM GMT
Moon 9:25 AM GMT (2/19) 9:04 PM GMT (2/19)
Length of Visible Light 12h 07m
Length of Day
11h 19m
Waning Gibbous, 81% of the Moon is Illuminated
Feb 19
Waning Gibbous
Feb 22
Last Quarter
Mar 1
New
Mar 8
First Quarter
Mar 16
Full

Hourly Weather History & Observations

Time (GMT) Temp. Dew Point Humidity Pressure Visibility Wind Dir Wind Speed Gust Speed Precip Events Conditions
12:56 AM 68.9 °F 55.9 °F 63% 30.88 in 9.0 mi SSE 6.9 mph - N/A   Mostly Cloudy
1:56 AM 68.0 °F 55.9 °F 65% 30.87 in 9.0 mi SSE 5.8 mph - N/A   Overcast
2:56 AM 68.9 °F 57.9 °F 68% 30.87 in 8.0 mi Calm Calm - N/A   Mostly Cloudy
3:56 AM 68.0 °F 56.8 °F 67% 30.87 in 10.0 mi Calm Calm - N/A   Partly Cloudy
4:56 AM 68.9 °F 54.0 °F 59% 30.89 in 10.0 mi Calm Calm - N/A   Partly Cloudy
5:56 AM 64.9 °F 54.9 °F 70% 30.90 in 7.0 mi Calm Calm - N/A   Clear
6:56 AM 63.0 °F 57.9 °F 84% 30.91 in 5.0 mi Calm Calm - N/A   Haze
7:56 AM 64.9 °F 59.9 °F 84% 30.92 in 6.0 mi Calm Calm - N/A   Haze
8:56 AM 63.9 °F 59.9 °F 87% 30.92 in 5.0 mi Calm Calm - N/A   Clear
9:56 AM 64.9 °F 61.9 °F 90% 30.92 in 8.0 mi Calm Calm - N/A   Clear
10:56 AM 65.8 °F 59.9 °F 81% 30.91 in 8.0 mi SSE 9.2 mph - N/A   Clear
11:56 AM 65.8 °F 59.9 °F 81% 30.89 in 7.0 mi SSE 8.1 mph - N/A   Clear
12:56 PM 64.9 °F 61.0 °F 87% 30.90 in 7.0 mi South 8.1 mph - N/A   Clear
1:56 PM 65.8 °F 61.0 °F 84% 30.88 in 8.0 mi South 8.1 mph - N/A   Partly Cloudy
2:56 PM 64.9 °F 61.0 °F 87% 30.88 in 6.0 mi Calm Calm - N/A   Clear
3:56 PM 63.9 °F 61.9 °F 93% 30.87 in 4.0 mi Calm Calm - N/A   Clear
4:56 PM 64.9 °F 61.9 °F 90% 30.88 in 7.0 mi Calm Calm - N/A   Clear
5:56 PM 64.9 °F 61.0 °F 87% 30.91 in 7.0 mi SSW 8.1 mph - N/A   Clear
6:56 PM 65.8 °F 59.9 °F 81% 30.91 in 5.0 mi SSW 8.1 mph - N/A   Haze
7:56 PM 68.0 °F 61.0 °F 78% 30.94 in 4.0 mi Calm Calm - N/A   Haze
8:56 PM 68.9 °F 61.0 °F 76% 30.95 in 7.0 mi SW 6.9 mph - N/A   Clear
9:56 PM 70.9 °F 61.9 °F 73% 30.93 in 7.0 mi South 9.2 mph - N/A   Clear
10:56 PM 70.9 °F 61.9 °F 73% 30.93 in 6.0 mi SW 9.2 mph - N/A   Haze
11:56 PM 70.9 °F 61.9 °F 73% 30.90 in 6.0 mi SW 9.2 mph - N/A   Haze